Location: Misciano
(43.5000°N, 11.9500°E)
Time: 04:30:52
(UTC+00:00)

SJ 16-02 - Pass Details

Date: 13 August 2020
Orbit: 607 x 616 km, 75.0° (Epoch: 19 September)

Event Time Altitude Azimuth Distance (km) Brightness Sun altitude
Exits shadow 23:55:06 26° 44° (NE) 1,221 3.3 -31.6°
Drops below altitude 10° 23:57:12 10° 30° (NNE) 1,977 4.7 -31.5°
Sets 23:59:30 0° 25° (NNE) 2,884 5.9 -31.4°
